Location: Bergnershof
(48.9468°N, 10.9431°E)
Time: 00:37:13
(UTC+00:00)

Cosmos 1844 Rocket - Pass Details

Date: 16 June 2021
Orbit: 823 x 846 km, 71.0° (Epoch: 30 July)

Event Time Altitude Azimuth Distance (km) Brightness Sun altitude
Rises 22:18:36 0° 320° (NW) 3,412 7.0 -16.5°
Reaches altitude 10° 22:21:44 10° 303° (WNW) 2,474 5.8 -16.6°
Maximum altitude 22:25:32 19° 261° (W) 1,926 4.6 -16.8°
Enters shadow 22:29:03 11° 220° (SW) 2,394 4.7 -16.9°
